Weather History for Stevens Point, WI

Change the Weather History Date:

Wednesday, October 31, 2012

  Actual Average Record
Temperature  
Mean Temperature 36 °F -  
Max Temperature 44 °F 53 °F 79 °F (1950)
Min Temperature 27 °F 34 °F 17 °F (1954)
Degree Days  
Heating Degree Days 30    
Moisture  
Dew Point 19 °F    
Average Humidity 57    
Maximum Humidity 83    
Minimum Humidity 29    
Precipitation  
Precipitation 0.00 in - - ()
Sea Level Pressure  
Sea Level Pressure 29.87 in    
Wind  
Wind Speed 7 mph (NW)    
Max Wind Speed 15 mph    
Max Gust Speed 24 mph    
Visibility 10 miles    
Events      
Averages and records for this station are not official NWS values.
T = Trace of Precipitation, MM = Missing Value Source: NWS Daily Summary

Daily Weather History Graph

Daily Weather History Graph

Search for Another Location

Airport:

Trip Planner

Search our weather history database for the weather conditions in past years. The results will help you decide how hot, cold, wet, or windy it might be!

Date:

Astronomy

Oct. 31, 2012 Rise Set
Actual Time 7:34 AM CDT 5:47 PM CDT
Civil Twilight 7:04 AM CDT 6:18 PM CDT
Nautical Twilight 6:30 AM CDT 6:52 PM CDT
Astronomical Twilight 5:56 AM CDT 7:26 PM CDT
Moon 6:54 PM CDT (10/31) 9:20 AM CDT (10/31)
Length of Visible Light 11h 13m
Length of Day
10h 12m
Full, 97% of the Moon is Illuminated
Oct 31
Full
Nov 6
Last Quarter
Nov 13
New
Nov 20
First Quarter
Nov 28
Full

Hourly Weather History & Observations

Time (CDT) Temp. Windchill Dew Point Humidity Pressure Visibility Wind Dir Wind Speed Gust Speed Precip Events Conditions
12:35 AM 29.8 °F 22.2 °F 19.4 °F 65% 29.89 in 10.0 mi NNW 8.1 mph - N/A   Clear
12:55 AM 29.3 °F 22.3 °F 19.4 °F 67% 29.89 in 10.0 mi NNW 6.9 mph - N/A   Clear
1:15 AM 29.3 °F 21.5 °F 19.4 °F 67% 29.88 in 10.0 mi NNW 8.1 mph - N/A   Clear
1:55 AM 29.3 °F 24.3 °F 19.9 °F 68% 29.88 in 10.0 mi NW 4.6 mph - N/A   Clear
2:15 AM 29.3 °F 21.5 °F 19.9 °F 68% 29.89 in 10.0 mi NNW 8.1 mph - N/A   Clear
2:35 AM 29.3 °F 22.3 °F 20.3 °F 69% 29.89 in 10.0 mi NW 6.9 mph - N/A   Clear
2:55 AM 29.3 °F 22.3 °F 20.3 °F 69% 29.89 in 10.0 mi NW 6.9 mph - N/A   Clear
3:15 AM 29.1 °F 19.4 °F 20.7 °F 71% 29.89 in 10.0 mi NNW 11.5 mph - N/A   Clear
3:35 AM 28.9 °F 21.9 °F 20.8 °F 72% 29.88 in 10.0 mi NW 6.9 mph - N/A   Clear
3:55 AM 28.4 °F 19.7 °F 21.0 °F 74% 29.89 in 10.0 mi NW 9.2 mph - N/A   Clear
4:15 AM 28.4 °F 20.4 °F 21.2 °F 74% 29.89 in 10.0 mi NNW 8.1 mph - N/A   Clear
4:35 AM 28.4 °F 21.2 °F 21.4 °F 75% 29.88 in 10.0 mi NW 6.9 mph - N/A   Clear
4:55 AM 28.2 °F 22.0 °F 21.4 °F 76% 29.88 in 10.0 mi NW 5.8 mph - N/A   Clear
5:15 AM 28.0 °F 20.8 °F 21.6 °F 77% 29.88 in 10.0 mi NNW 6.9 mph - N/A   Clear
5:35 AM 28.2 °F 19.5 °F 21.7 °F 77% 29.88 in 10.0 mi NW 9.2 mph - N/A   Clear
5:55 AM 28.2 °F 19.5 °F 21.9 °F 77% 29.89 in 10.0 mi NNW 9.2 mph - N/A   Clear
6:15 AM 28.0 °F 18.6 °F 21.9 °F 78% 29.89 in 10.0 mi NW 10.4 mph - N/A   Clear
6:35 AM 28.0 °F 19.3 °F 22.1 °F 78% 29.89 in 10.0 mi NNW 9.2 mph - N/A   Clear
6:55 AM 27.9 °F 19.8 °F 22.1 °F 79% 29.89 in 10.0 mi NNW 8.1 mph 16.1 mph N/A   Clear
7:15 AM 27.5 °F 18.0 °F 22.3 °F 81% 29.89 in 10.0 mi NNW 10.4 mph - N/A   Clear
7:35 AM 27.7 °F 18.8 °F 22.6 °F 81% 29.89 in 10.0 mi NNW 9.2 mph - N/A   Scattered Clouds
7:55 AM 27.7 °F 20.4 °F 23.0 °F 83% 29.88 in 10.0 mi NW 6.9 mph - N/A   Scattered Clouds
8:15 AM 28.0 °F 20.8 °F 23.0 °F 81% 29.88 in 10.0 mi NW 6.9 mph - N/A   Clear
8:35 AM 28.9 °F 20.4 °F 23.0 °F 78% 29.89 in 10.0 mi NNW 9.2 mph - N/A   Clear
8:55 AM 29.8 °F 22.2 °F 23.0 °F 76% 29.88 in 10.0 mi NNW 8.1 mph - N/A   Clear
9:15 AM 31.1 °F 22.4 °F 23.2 °F 72% 29.89 in 10.0 mi NNW 10.4 mph 17.3 mph N/A   Clear
9:55 AM 32.5 °F 24.2 °F 23.7 °F 70% 29.88 in 10.0 mi NW 10.4 mph - N/A   Clear
10:15 AM 33.4 °F 25.4 °F 24.1 °F 69% 29.88 in 10.0 mi NW 10.4 mph 18.4 mph N/A   Clear
10:35 AM 34.2 °F 26.2 °F 24.3 °F 67% 29.88 in 10.0 mi NW 10.4 mph - N/A   Clear
10:55 AM 35.6 °F 29.2 °F 24.8 °F 65% 29.88 in 10.0 mi NNW 8.1 mph - N/A   Clear
11:15 AM 36.1 °F 28.7 °F 24.6 °F 63% 29.88 in 10.0 mi NW 10.4 mph 17.3 mph N/A   Clear
11:35 AM 37.0 °F 30.4 °F 24.6 °F 61% 29.88 in 10.0 mi NW 9.2 mph - N/A   Clear
11:55 AM 38.3 °F 31.4 °F 25.2 °F 59% 29.88 in 10.0 mi NW 10.4 mph 16.1 mph N/A   Clear
12:15 PM 38.7 °F 33.6 °F 24.8 °F 58% 29.87 in 10.0 mi NW 6.9 mph 16.1 mph N/A   Clear
12:35 PM 39.6 °F 32.5 °F 24.6 °F 55% 29.86 in 10.0 mi WNW 11.5 mph - N/A   Clear
12:55 PM 40.1 °F 33.2 °F 24.3 °F 53% 29.86 in 10.0 mi WNW 11.5 mph 17.3 mph N/A   Clear
1:15 PM 41.0 °F 33.1 °F 23.4 °F 50% 29.86 in 10.0 mi NW 15.0 mph 19.6 mph N/A   Clear
1:35 PM 41.9 °F 35.0 °F 22.3 °F 46% 29.85 in 10.0 mi NW 12.7 mph 19.6 mph N/A   Clear
1:55 PM 42.3 °F 36.8 °F 20.3 °F 42% 29.85 in 10.0 mi NW 9.2 mph 24.2 mph N/A   Clear
2:15 PM 42.6 °F 36.3 °F 18.7 °F 38% 29.84 in 10.0 mi WNW 11.5 mph 20.7 mph N/A   Clear
2:35 PM 43.2 °F 37.4 °F 18.5 °F 37% 29.84 in 10.0 mi NW 10.4 mph 16.1 mph N/A   Clear
2:55 PM 43.2 °F 37.4 °F 18.1 °F 37% 29.83 in 10.0 mi NNW 10.4 mph - N/A   Clear
3:35 PM 43.9 °F 39.9 °F 18.1 °F 36% 29.83 in 10.0 mi WNW 6.9 mph - N/A   Clear
3:55 PM 43.9 °F 39.9 °F 17.8 °F 35% 29.83 in 10.0 mi WNW 6.9 mph 16.1 mph N/A   Clear
4:15 PM 44.1 °F 38.6 °F 17.4 °F 34% 29.84 in 10.0 mi NW 10.4 mph - N/A   Clear
4:55 PM 43.9 °F 38.8 °F 14.4 °F 30% 29.84 in 10.0 mi NW 9.2 mph - N/A   Clear
5:15 PM 43.3 °F 39.2 °F 12.9 °F 29% 29.84 in 10.0 mi NW 6.9 mph - N/A   Clear
5:35 PM 42.6 °F 39.0 °F 13.6 °F 31% 29.85 in 10.0 mi WNW 5.8 mph - N/A   Clear
5:55 PM 41.2 °F 38.2 °F 14.7 °F 34% 29.85 in 10.0 mi WNW 4.6 mph - N/A   Clear
6:15 PM 40.1 °F 38.0 °F 14.0 °F 35% 29.86 in 10.0 mi WNW 3.5 mph - N/A   Clear
6:35 PM 38.8 °F - 14.2 °F 37% 29.86 in 10.0 mi Calm Calm - N/A   Clear
6:55 PM 37.8 °F 35.3 °F 14.7 °F 39% 29.86 in 10.0 mi West 3.5 mph - N/A   Clear
7:15 PM 37.2 °F 34.7 °F 15.3 °F 41% 29.86 in 10.0 mi WNW 3.5 mph - N/A   Clear
7:35 PM 37.0 °F 33.3 °F 14.7 °F 40% 29.86 in 10.0 mi WNW 4.6 mph - N/A   Clear
7:55 PM 36.1 °F - 14.4 °F 41% 29.86 in 10.0 mi Calm Calm - N/A   Clear
8:15 PM 35.2 °F - 14.0 °F 42% 29.86 in 10.0 mi Calm Calm - N/A   Clear
8:35 PM 34.3 °F 31.4 °F 14.0 °F 43% 29.86 in 10.0 mi West 3.5 mph - N/A   Clear
8:55 PM 34.2 °F 31.2 °F 13.1 °F 42% 29.86 in 10.0 mi WNW 3.5 mph - N/A   Clear
9:15 PM 34.3 °F 31.4 °F 12.2 °F 40% 29.86 in 10.0 mi WNW 3.5 mph - N/A   Clear
9:35 PM 33.4 °F - 12.4 °F 42% 29.86 in 10.0 mi Calm Calm - N/A   Clear
9:55 PM 32.5 °F - 11.8 °F 42% 29.86 in 10.0 mi Calm Calm - N/A   Clear
10:15 PM 32.0 °F - 11.3 °F 42% 29.86 in 10.0 mi Calm Calm - N/A   Clear
10:35 PM 32.2 °F - 11.3 °F 42% 29.86 in 10.0 mi Calm Calm - N/A   Clear
10:55 PM 31.8 °F - 12.0 °F 44% 29.86 in 10.0 mi Calm Calm - N/A   Clear
11:15 PM 30.9 °F - 11.7 °F 45% 29.86 in 10.0 mi Calm Calm - N/A   Clear
11:35 PM 27.1 °F - 12.4 °F 54% 29.86 in 10.0 mi Calm Calm - N/A   Clear
11:55 PM 28.6 °F - 12.6 °F 51% 29.85 in 10.0 mi Calm Calm - N/A   Scattered Clouds